User: anonymous   Login
Location: Unspecified
(0.0000°N, 0.0000°E)
Time: 10:33:00
(UTC+00:00)
Language:

Atlas Centaur 2 - Orbit

View from above orbital plane
View from above orbital plane
View from above satellite
View from above satellite

Ground track
Ground track

The orbit data is extracted from the following two-line orbital elements,

1   694U 63047A   18020.45477549 +.00000192 +00000-0 +13161-4 0  9993
2   694 030.3567 049.3864 0587298 116.6761 249.5182 14.02251561713612
Epoch (UTC): 20 January 2018 10:54:52
Eccentricity: 0.0587298
inclination: 30.3567°
perigee height: 459 km
apogee height: 1312 km
right ascension of ascending node: 49.3864°
argument of perigee: 116.6761°
revolutions per day: 14.02251561
mean anomaly at epoch: 249.5182°
orbit number at epoch: 71361

The dashed part of the orbit path shows where the satellite is in the earth's shadow,  

DLR